Concord, NH

10:03 PM EDT on April 27, 2017 (GMT -0400)
Concord Municipal

Weather History for KCON - May, 2014

Change the Weather History Date:

Monday, May 26, 2014

  Actual Average Record
Temperature  
Mean Temperature 64 °F 59 °F  
Max Temperature 79 °F 72 °F 96 °F (2010)
Min Temperature 48 °F 46 °F 28 °F (1956)
Degree Days  
Heating Degree Days 1 7  
Month to date heating degree days 215 272  
Since 1 July heating degree days 7517 7119  
Cooling Degree Days 0 1  
Month to date cooling degree days 2 9  
Year to date cooling degree days 2 11  
Growing Degree Days 14 (Base 50)    
Moisture  
Dew Point 52 °F    
Average Humidity 69    
Maximum Humidity 100    
Minimum Humidity 37    
Precipitation  
Precipitation 0.02 in 0.13 in 1.21 in (2003)
Month to date precipitation 3.30 3.03  
Year to date precipitation 17.47 15.03  
Snow  
Snow 0.00 in 0.00 in T in (1967)
Month to date snowfall 0.0 0.2  
Since 1 July snowfall 80.4 61.6  
Snow Depth 0.00 in    
Sea Level Pressure  
Sea Level Pressure 29.88 in    
Wind  
Wind Speed 5 mph (WNW)    
Max Wind Speed 24 mph    
Max Gust Speed 33 mph    
Visibility 7 miles    
Events Rain    
T = Trace of Precipitation, MM = Missing Value Source: NWS Daily Summary

Daily Weather History Graph

Daily Weather History Graph

Search for Another Location

Airport or City:

Trip Planner

Search our weather history database for the weather conditions in past years. The results will help you decide how hot, cold, wet, or windy it might be!

Date:

Astronomy

May. 26, 2014 Rise Set
Actual Time 5:12 AM EDT 8:14 PM EDT
Civil Twilight 4:38 AM EDT 8:48 PM EDT
Nautical Twilight 3:55 AM EDT 9:31 PM EDT
Astronomical Twilight 3:03 AM EDT 10:23 PM EDT
Moon 3:56 AM EDT (5/26) 6:10 PM EDT (5/26)
Length of Visible Light 16h 09m
Length of Day
15h 01m
Waning Crescent, 5% of the Moon is Illuminated
May 26
Waning Crescent
May 28
New
Jun 5
First Quarter
Jun 13
Full
Jun 19
Last Quarter

Hourly Weather History & Observations

Time (EDT) Temp. Dew Point Humidity Pressure Visibility Wind Dir Wind Speed Gust Speed Precip Events Conditions
12:51 AM 54.0 °F 53.1 °F 97% 29.97 in 9.0 mi Calm Calm - N/A   Clear
1:10 AM 52.0 °F 52.0 °F 100% 29.96 in 1.8 mi Calm Calm - N/A   Clear
1:37 AM 52.0 °F 52.0 °F 100% 29.96 in 3.0 mi Calm Calm - N/A   Clear
1:48 AM 51.8 °F 51.8 °F 100% 29.95 in 1.8 mi Calm Calm - N/A   Clear
1:51 AM 51.1 °F 51.1 °F 100% 29.95 in 1.2 mi Calm Calm - N/A   Partly Cloudy
1:58 AM 50.0 °F 50.0 °F 100% 29.95 in 2.5 mi Calm Calm - N/A   Clear
2:05 AM 50.0 °F 50.0 °F 100% 29.95 in 5.0 mi Calm Calm - N/A   Clear
2:08 AM 50.0 °F 50.0 °F 100% 29.95 in 1.2 mi Calm Calm - N/A   Clear
2:19 AM 50.0 °F 50.0 °F 100% 29.95 in 0.8 mi Calm Calm - N/A   Mostly Cloudy
2:26 AM 51.1 °F 50.0 °F 96% 29.94 in 1.5 mi Calm Calm - N/A   Mostly Cloudy
2:28 AM 51.1 °F 51.1 °F 100% 29.94 in 3.0 mi Calm Calm - N/A   Mostly Cloudy
2:51 AM 52.0 °F 51.1 °F 97% 29.94 in 9.0 mi Calm Calm - N/A   Overcast
3:51 AM 50.0 °F 50.0 °F 100% 29.93 in 8.0 mi Calm Calm - N/A   Partly Cloudy
4:51 AM 48.9 °F 48.0 °F 97% 29.92 in 6.0 mi Calm Calm - N/A   Clear
5:51 AM 52.0 °F 51.1 °F 97% 29.92 in 10.0 mi East 3.5 mph - N/A   Scattered Clouds
6:51 AM 55.9 °F 53.1 °F 90% 29.94 in 10.0 mi Calm Calm - N/A   Overcast
7:51 AM 57.9 °F 55.9 °F 93% 29.94 in 5.0 mi Calm Calm - 0.01 in Rain Light Rain
8:51 AM 60.1 °F 57.0 °F 90% 29.92 in 10.0 mi East 3.5 mph - 0.01 in   Mostly Cloudy
9:51 AM 66.9 °F 55.9 °F 68% 29.89 in 10.0 mi West 5.8 mph - N/A   Clear
10:51 AM 72.0 °F 55.9 °F 57% 29.87 in 10.0 mi NW 3.5 mph - N/A   Clear
11:51 AM 75.9 °F 53.1 °F 45% 29.86 in 10.0 mi NW 20.7 mph 33.4 mph N/A   Partly Cloudy
12:51 PM 73.0 °F 52.0 °F 48% 29.85 in 10.0 mi West 11.5 mph - N/A   Clear
1:51 PM 73.9 °F 53.1 °F 48% 29.84 in 10.0 mi West 11.5 mph - N/A   Partly Cloudy
2:51 PM 75.2 °F 51.8 °F 44% 29.82 in 10.0 mi West 9.2 mph 16.1 mph N/A   Scattered Clouds
3:51 PM 78.1 °F 50.0 °F 37% 29.81 in 10.0 mi WNW 10.4 mph 18.4 mph N/A   Scattered Clouds
4:51 PM 77.0 °F 52.0 °F 42% 29.79 in 10.0 mi Calm Calm - N/A   Mostly Cloudy
5:51 PM 77.0 °F 51.1 °F 40% 29.78 in 10.0 mi WNW 6.9 mph - N/A   Partly Cloudy
6:51 PM 75.9 °F 52.0 °F 43% 29.79 in 10.0 mi WNW 6.9 mph - N/A   Partly Cloudy
7:51 PM 73.9 °F 48.9 °F 41% 29.80 in 10.0 mi NW 9.2 mph - N/A   Mostly Cloudy
8:51 PM 72.0 °F 48.0 °F 43% 29.81 in 10.0 mi NNW 3.5 mph - N/A   Overcast
9:51 PM 68.0 °F 51.1 °F 55% 29.81 in 10.0 mi SW 4.6 mph - N/A   Overcast
10:51 PM 63.0 °F 54.0 °F 72% 29.81 in 10.0 mi ENE 4.6 mph - N/A   Mostly Cloudy
11:51 PM 61.0 °F 55.0 °F 81% 29.82 in 10.0 mi Calm Calm - N/A   Scattered Clouds